Location: Wildcat Hills Observatory
(41.6350°N, 103.6812°W)
Time: 00:25:03
(UTC-07:00)

ATLAS 3B R/B - Pass Details

Date: 23 June 2018
Orbit: 1024 x 1171 km, 63.8° (Epoch: 10 December)

Event Time Altitude Azimuth Distance (km) Brightness Sun altitude
Rises 23:37:02 0° 314° (NW) 3,789 6.6 -22.4°
Reaches altitude 10° 23:40:12 10° 300° (WNW) 2,824 5.6 -22.6°
Maximum altitude 23:45:10 23° 251° (WSW) 2,020 4.1 -22.9°
Enters shadow 23:47:30 19° 223° (SW) 2,219 4.1 -23.0°
